Location: The C. Gantt Observatory
(33.6981°N, 81.6836°W)
Time: 14:44:33
(UTC-04:00)

Daily predictions for brighter satellites

Satellite Brightness Start Highest point End
(mag) Time Altitude Azimuth Time Altitude Azimuth Time Altitude Azimuth
Cosmos 2082 Rocket 3.2 20:48:08 10° NNW 20:53:33 48° WSW 20:58:59 10° S
Cosmos 1825 4.2 20:54:52 10° ESE 20:55:55 11° E 20:56:59 10° ENE
Cosmos 1833 Rocket 3.8 20:52:49 10° NW 20:58:10 46° WSW 21:03:29 10° S
H-2A R/B 3.7 20:55:21 10° S 20:59:10 51° W 21:03:02 10° NNW
Cosmos 2034 Rocket 4.1 20:54:33 10° N 21:00:46 88° W 21:06:54 10° S
Cosmos 1125 Rocket 4.3 20:56:20 10° SSE 21:00:51 30° E 21:05:22 10° NE
Meteor 2-3 Rocket 3.8 20:55:18 10° S 21:00:55 60° E 21:06:29 10° NNE
PEGASUS R/B 4.4 20:59:52 10° NNE 21:02:17 59° WNW 21:05:48 10° SSW
Cosmos 1933 Rocket 4.1 21:01:20 10° SSW 21:05:37 64° W 21:09:56 10° N
Cosmos 2344 4.1 21:01:27 10° S 21:08:14 34° ESE 21:15:07 10° NE
Meteor 1-26 Rocket 4.3 21:03:56 10° N 21:09:35 67° E 21:15:20 10° SSE
USA 186 1.3 21:07:59 10° SSE 21:10:37 71° ENE 21:13:29 10° N
Cosmos 1943 Rocket 2.6 21:07:06 10° S 21:12:16 40° ESE 21:17:26 10° NE
Cosmos 1862 Rocket 3.8 21:09:28 10° N 21:13:57 76° W 21:18:24 10° S
Delta 7925 Rocket 4.4 21:11:08 10° SW 21:15:00 26° SSE 21:18:41 12° ESE
Cosmos 1782 4.4 21:14:16 10° NNE 21:17:07 19° ENE 21:19:12 13° ESE
Cosmos 1892 2.9 21:14:01 10° S 21:17:51 75° W 21:21:42 10° N
Resurs 01 Rocket 2.4 21:21:27 10° S 21:25:45 54° W 21:30:07 10° NNW
OAO 3 Copernicus 4.3 21:22:01 10° WSW 21:27:03 84° SSE 21:32:07 10° E
Star 37E S/N 40062 4.1 21:27:40 10° WSW 21:29:33 28° S 21:31:13 18° SE
Okean 1-7 3.7 21:26:03 10° NNE 21:30:06 35° E 21:32:56 17° SE
Cosmos 1340 4.4 21:30:55 10° NNE 21:33:30 17° ENE 21:34:24 16° E
Cosmos 2263 4.2 21:28:15 10° SSW 21:34:00 83° ESE 21:39:46 10° NNE
YAOGAN 6 2.8 21:37:20 19° SSE 21:39:45 52° ENE 21:43:21 10° N
Cosmos 2369 Rocket 2.9 21:35:56 10° SW 21:41:28 58° WNW 21:47:06 10° NNE
H-2A R/B 3.9 21:40:00 13° E 21:41:57 15° ENE 21:44:55 10° NNE
CZ-4B DEB 3.2 21:41:28 29° ESE 21:42:17 36° ENE 21:45:00 10° N
ISS -0.5 21:41:17 10° NW 21:42:34 12° NNW 21:43:51 10° N
Meteor 1-29 3.0 21:39:31 10° NNE 21:42:57 57° E 21:45:54 13° S
Tiangong 2 1.3 21:42:41 10° WNW 21:45:51 61° SSW 21:47:06 32° SE
ERS-1 Rocket 3.7 21:43:43 21° SE 21:46:25 37° ENE 21:51:01 10° N
Cosmos 2142 Rocket 4.4 21:43:37 10° N 21:49:46 78° E 21:55:23 13° S
Helios 1B rocket 2.4 21:46:12 10° N 21:50:19 84° WNW 21:54:24 10° SSW
Cosmos 1703 Rocket 3.6 21:47:04 10° N 21:51:28 79° W 21:55:10 14° S
GPS 2-04 Rocket1 2.4 21:50:06 10° WNW 21:53:54 81° NNE 21:55:27 32° E
Shenzhou-11 Module 3.1 21:51:18 10° WNW 21:54:06 33° SW 21:54:52 28° S
Cosmos 1606 2.9 21:51:46 10° N 21:55:27 50° E 21:56:41 34° SE
H-2A ROCKET BODY 2.3 21:53:48 10° WSW 21:56:29 36° S 21:58:45 26° SE
Cosmos 1733 Rocket 3.9 21:56:23 28° ESE 21:56:58 29° E 22:00:43 10° NNE
Cosmos 2084 3.3 21:53:11 10° NW 21:57:03 74° WSW 21:58:57 29° SSE
Aureole 3 3.0 21:54:27 11° SSW 21:57:21 62° W 22:00:18 10° N
Delta 168 4.3 21:55:18 10° SW 21:57:58 20° S 21:58:09 20° S
Lacrosse 4 Rocket 2.6 21:54:24 10° N 21:58:25 31° ENE 21:59:44 26° E
ATLAS 5 CENTAUR R/B 2.9 21:55:27 10° NNW 22:01:21 48° NE 22:04:39 27° ESE
Milstar 3 3.7 21:48:48 10° WSW 22:02:09 57° S 22:07:42 21° ESE
ATLAS CENTAUR R/B 3.5 22:05:12 12° ENE 22:05:12 12° ENE 22:05:36 10° ENE
Cosmos 1048 Rocket 4.1 22:00:07 10° N 22:05:21 60° ENE 22:07:36 33° SE
Cosmos 1869 Rocket 4.5 22:01:42 10° SSW 22:05:52 47° W 22:10:06 10° N
Cosmos 1656 Rocket 3.7 22:02:20 14° S 22:06:45 51° ESE 22:12:04 10° NNE
Cosmos 1408 2.9 22:04:02 14° SSW 22:07:05 67° W 22:10:48 10° N
SPOT 5 3.9 22:06:19 28° ESE 22:07:58 35° ENE 22:12:43 10° N
ARGOS 3.6 22:10:08 32° ESE 22:12:01 45° ENE 22:17:05 10° N
CENTAUR R/B 3.6 22:11:31 10° SW 22:17:09 44° NW 22:23:31 10° NNE
Helios 1A 4.5 22:25:18 17° SSW 22:27:57 33° W 22:31:45 10° NNW
Meteor 1-27 Rocket 3.6 22:24:05 10° N 22:29:47 72° E 22:31:32 45° SSE
Cosmos 1825 3.8 22:28:00 12° SW 22:31:06 33° W 22:34:33 10° NNW
SL-08 RB Rocket 3.8 22:33:00 54° E 22:33:26 57° ENE 22:38:01 10° N
Cosmos 1674 Rocket 4.1 22:34:20 10° N 22:37:55 42° ENE 22:37:55 42° ENE
SPOT 1/Viking Rocket 3.7 22:39:33 49° E 22:40:05 52° ENE 22:45:08 10° N
MetOp-A 4.2 22:40:22 41° S 22:42:12 72° WSW 22:47:34 10° NNW
DMSP B5D2-2 4.3 22:39:00 10° NNE 22:43:39 48° E 22:43:39 48° E
Cosmos 1269 Rocket 4.4 22:41:11 10° NNW 22:46:22 59° WSW 22:47:51 42° SSW
H-2A R/B 4.4 22:50:34 13° NE 22:50:34 13° NE 22:51:27 10° NE
Cosmos 2227 Rocket 4.3 22:52:24 10° NNE 22:54:42 12° NE 22:55:17 12° ENE
Cosmos 1943 Rocket 4.4 22:51:41 10° WSW 22:56:05 23° WNW 23:00:30 10° N
Nadezhda 4 Rocket 4.1 22:53:34 31° SSW 22:56:38 71° W 23:02:48 10° N
Cosmos 1092 Rocket 3.8 22:56:30 57° S 22:57:50 81° E 23:03:59 10° N
Cosmos 2219 3.7 22:58:32 10° N 23:04:02 45° ENE 23:04:04 45° ENE
YAOGAN 11 4.4 23:04:23 64° W 23:04:23 64° W 23:08:44 10° NNW
Landsat 7 4.2 23:05:14 54° NE 23:05:14 54° NE 23:09:15 10° N
Cosmos 1627 Rocket 4.4 23:07:55 63° E 23:08:03 63° E 23:14:17 10° NNE
Intercosmos 25 Rocket 3.9 23:02:16 10° N 23:08:06 73° WNW 23:08:06 73° WNW
Cosmos 494 Rocket 4.0 23:05:21 10° NNW 23:10:11 73° NNE 23:10:11 73° NNE
Cosmos 1908 Rocket 4.3 23:12:37 51° N 23:12:37 51° N 23:15:59 10° N
OAO 3 Copernicus 4.4 23:06:40 10° W 23:11:17 70° NW 23:11:17 70° NW
Meteor 1-14 Rocket 4.2 23:13:13 74° E 23:13:13 74° E 23:18:54 10° NNE
Terra 2.6 23:20:55 45° NNE 23:20:55 45° NNE 23:24:25 10° N
H-2A R/B 2.4 23:20:37 59° WSW 23:20:49 60° W 23:26:06 10° NNW
Cosmos 1867 3.6 23:16:11 10° NNW 23:21:08 72° N 23:21:08 72° N
Lacrosse 4 Rocket 3.7 23:33:40 10° WNW 23:36:05 19° W 23:36:05 19° W
USA 215 3.1 23:40:49 79° SW 23:40:52 79° SW 23:47:27 10° NW
ATLAS CENTAUR R/B 3.6 23:41:20 23° NW 23:41:20 23° NW 23:44:22 10° N
SL-19 R/B 4.5 23:35:18 10° NNE 23:41:05 80° NNE 23:41:05 80° NNE
ATLAS 5 CENTAUR R/B 3.8 23:40:40 10° NW 23:45:54 28° WSW 23:46:13 28° WSW
Cosmos 2297 Rocket 3.7 23:44:30 10° N 23:48:21 27° NE 23:48:21 27° NE
